Terminal Aerodrome Forecast
Issued by NWS Newport/Morehead City, NC

Home | Current Version | Previous Version | Text Only | Print | Product List | Glossary On
Versions: 1 2 3 4 5 6 7 8 9 10 11 12 13 14 15 16 17 18 19 20 21 22
000
FTUS42 KMHX 230300 AAD
TAFEWN
TAF AMD
KEWN 230326Z 2303/2324 33005KT 1/2SM FG VV002
     FM230900 03005KT 2SM BR OVC001
     FM231600 07005KT 4SM BR OVC003
     FM231900 12005KT 4SM BR OVC003=

USA.gov is the U.S. government's official web portal to all federal, state and local government web resources and services.